QPF
0.00 0.00 0.00 0.00 0.00 0.00 0.00 0.00 0.00 0.00 0.00 0.00 0.00 0.00 0.00 0.00 0.00 0.00 0.00 0.00 0.00 0.00 0.00 0.00 0.00 0.02 0.04 0.04 0.04 0.02 0.02 0.02 0.01 0.01 0.00 0.00 0.00 0.00 0.00 0.00 0.00 0.00 0.00 0.00
0.00 0.00 0.00 0.00 0.00 0.00 0.00 0.00 0.00 0.00 0.00 0.00 0.00 0.00 0.00 0.00 0.00 0.00 0.00 0.00 0.00 0.00 0.00 0.02 0.02 0.06 0.09 0.04 0.02 0.01 0.01 0.01 0.01 0.00 0.00 0.00 0.00 0.00 0.00 0.00 0.00 0.00 0.00 0.00
0.00 0.00 0.00 0.00 0.00 0.00 0.00 0.00 0.00 0.00 0.00 0.00 0.00 0.00 0.00 0.00 0.00 0.00 0.00 0.00 0.00 0.01 0.01 0.02 0.02 0.03 0.12 0.05 0.02 0.02 0.02 0.01 0.00 0.00 0.00 0.00 0.00 0.00 0.00 0.00 0.00 0.00 0.00 0.00
0.00 0.00 0.00 0.00 0.00 0.00 0.00 0.00 0.00 0.00 0.00 0.00 0.00 0.00 0.00 0.00 0.00 0.00 0.00 0.00 0.01 0.01 0.01 0.03 0.02 0.02 0.09 0.06 0.02 0.01 0.01 0.01 0.00 0.00 0.00 0.00 0.00 0.00 0.00 0.00 0.00 0.00 0.00 0.00
0.00 0.00 0.00 0.00 0.00 0.00 0.00 0.00 0.00 0.00 0.00 0.00 0.00 0.00 0.00 0.00 0.00 0.00 0.00 0.00 0.00 0.00 0.02 0.01 0.02 0.05 0.08 0.06 0.03 0.01 0.00 0.01 0.00 0.00 0.00 0.00 0.00 0.00 0.00 0.00 0.00 0.00 0.00 0.00
0.00 0.00 0.00 0.00 0.00 0.00 0.00 0.00 0.00 0.00 0.00 0.00 0.00 0.00 0.00 0.00 0.00 0.00 0.00 0.00 0.00 0.00 0.01 0.02 0.03 0.06 0.04 0.03 0.02 0.02 0.01 0.00 0.00 0.00 0.00 0.00 0.00 0.00 0.00 0.00 0.00 0.00 0.00 0.00
0.00 0.00 0.00 0.00 0.00 0.00 0.00 0.00 0.00 0.00 0.00 0.00 0.00 0.00 0.00 0.00 0.00 0.00 0.00 0.00 0.00 0.00 0.01 0.01 0.01 0.04 0.04 0.04 0.02 0.01 0.01 0.00 0.00 0.00 0.00 0.00 0.00 0.00 0.00 0.00 0.00 0.00 0.00 0.00
0.00 0.00 0.00 0.00 0.00 0.00 0.00 0.00 0.00 0.00 0.00 0.00 0.00 0.00 0.00 0.00 0.00 0.00 0.00 0.00 0.00 0.00 0.00 0.00 0.01 0.03 0.05 0.05 0.01 0.00 0.00 0.00 0.00 0.00 0.00 0.01 0.00 0.00 0.00 0.00 0.00 0.00 0.00 0.00
0.00 0.00 0.00 0.00 0.00 0.00 0.00 0.00 0.00 0.00 0.00 0.00 0.00 0.00 0.00 0.00 0.00 0.00 0.00 0.00 0.00 0.00 0.00 0.00 0.00 0.02 0.04 0.04 0.02 0.01 0.01 0.00 0.00 0.00 0.00 0.00 0.01 0.00 0.00 0.00 0.00 0.00 0.00 0.00
0.00 0.00 0.00 0.00 0.00 0.00 0.00 0.00 0.00 0.00 0.00 0.00 0.00 0.00 0.00 0.00 0.00 0.00 0.00 0.00 0.00 0.00 0.00 0.00 0.00 0.01 0.01 0.03 0.03 0.02 0.01 0.00 0.00 0.00 0.00 0.00 0.00 0.00 0.00 0.00 0.00 0.00 0.00 0.00
0.00 0.00 0.00 0.00 0.00 0.00 0.00 0.00 0.00 0.00 0.00 0.00 0.00 0.00 0.00 0.00 0.00 0.00 0.00 0.00 0.00 0.00 0.00 0.00 0.00 0.00 0.00 0.00 0.01 0.01 0.00 0.00 0.00 0.00 0.00 0.00 0.00 0.00 0.00 0.00 0.00 0.00 0.00 0.00
0.00 0.00 0.00 0.00 0.00 0.00 0.00 0.00 0.00 0.00 0.00 0.00 0.00 0.00 0.00 0.00 0.00 0.00 0.00 0.00 0.00 0.00 0.00 0.00 0.00 0.00 0.00 0.00 0.00 0.00 0.00 0.00 0.00 0.00 0.00 0.00 0.00 0.00 0.00 0.00 0.00 0.00 0.00 0.00
0.00 0.00 0.00 0.00 0.00 0.00 0.00 0.00 0.00 0.00 0.00 0.00 0.00 0.00 0.00 0.00 0.00 0.00 0.00 0.00 0.00 0.00 0.00 0.00 0.00 0.00 0.00 0.00 0.00 0.00 0.00 0.00 0.00 0.00 0.00 0.00 0.00 0.00 0.00 0.00 0.00 0.00 0.00 0.00
0.00 0.00 0.00 0.00 0.00 0.00 0.00 0.00 0.00 0.00 0.00 0.00 0.00 0.00 0.00 0.00 0.00 0.00 0.00 0.00 0.00 0.00 0.00 0.00 0.00 0.00 0.00 0.00 0.00 0.00 0.00 0.00 0.00 0.00 0.00 0.00 0.00 0.00 0.00 0.00 0.00 0.00 0.00 0.00
0.00 0.00 0.00 0.00 0.00 0.00 0.00 0.00 0.00 0.00 0.00 0.00 0.00 0.00 0.00 0.00 0.00 0.00 0.00 0.00 0.00 0.00 0.00 0.00 0.00 0.00 0.00 0.00 0.00 0.00 0.00 0.00 0.00 0.00 0.00 0.00 0.00 0.00 0.00 0.00 0.00 0.00 0.00 0.00
0.00 0.00 0.00 0.00 0.00 0.00 0.00 0.00 0.00 0.00 0.00 0.00 0.00 0.00 0.00 0.00 0.00 0.00 0.00 0.00 0.00 0.00 0.00 0.00 0.00 0.00 0.00 0.00 0.00 0.00 0.00 0.00 0.00 0.00 0.00 0.00 0.00 0.00 0.00 0.00 0.00 0.00 0.00 0.00
0.00 0.00 0.00 0.00 0.00 0.00 0.00 0.00 0.00 0.00 0.00 0.00 0.00 0.00 0.00 0.00 0.00 0.00 0.00 0.00 0.00 0.00 0.00 0.00 0.00 0.00 0.00 0.00 0.00 0.00 0.00 0.00 0.00 0.00 0.00 0.00 0.00 0.00 0.00 0.00 0.00 0.00 0.00 0.00
0.00 0.00 0.00 0.00 0.00 0.00 0.00 0.00 0.00 0.00 0.00 0.00 0.00 0.00 0.00 0.00 0.00 0.00 0.00 0.00 0.00 0.00 0.00 0.00 0.00 0.00 0.00 0.00 0.00 0.00 0.00 0.00 0.00 0.00 0.00 0.00 0.00 0.00 0.00 0.00 0.00 0.00 0.00 0.00
0.00 0.00 0.00 0.00 0.00 0.00 0.00 0.00 0.00 0.00 0.00 0.00 0.00 0.00 0.00 0.00 0.00 0.00 0.00 0.00 0.00 0.00 0.00 0.00 0.00 0.00 0.00 0.00 0.00 0.00 0.00 0.00 0.00 0.00 0.00 0.00 0.00 0.00 0.00 0.00 0.00 0.00 0.00 0.00
0.00 0.00 0.00 0.00 0.00 0.00 0.00 0.00 0.00 0.00 0.00 0.00 0.00 0.00 0.00 0.00 0.00 0.00 0.00 0.00 0.00 0.00 0.00 0.00 0.00 0.00 0.00 0.00 0.00 0.00 0.00 0.00 0.00 0.00 0.00 0.00 0.00 0.00 0.00 0.00 0.00 0.00 0.00 0.00
0.00 0.00 0.00 0.00 0.00 0.00 0.00 0.00 0.00 0.00 0.00 0.00 0.00 0.00 0.00 0.00 0.00 0.00 0.00 0.00 0.00 0.00 0.00 0.00 0.00 0.00 0.00 0.00 0.00 0.00 0.00 0.00 0.00 0.00 0.00 0.00 0.00 0.00 0.00 0.00 0.00 0.00 0.00 0.00
0.00 0.00 0.00 0.00 0.00 0.00 0.00 0.00 0.00 0.00 0.00 0.00 0.00 0.00 0.00 0.00 0.00 0.00 0.00 0.00 0.00 0.00 0.00 0.00 0.00 0.00 0.00 0.00 0.00 0.00 0.00 0.00 0.00 0.00 0.00 0.00 0.00 0.00 0.00 0.00 0.00 0.00 0.00 0.00
0.00 0.00 0.00 0.00 0.00 0.00 0.00 0.00 0.00 0.00 0.00 0.00 0.00 0.00 0.00 0.00 0.00 0.00 0.00 0.00 0.00 0.00 0.00 0.00 0.00 0.00 0.00 0.00 0.00 0.00 0.00 0.00 0.00 0.00 0.00 0.00 0.00 0.00 0.00 0.00 0.00 0.00 0.00 0.00
0.00 0.00 0.00 0.00 0.00 0.00 0.00 0.00 0.00 0.00 0.00 0.00 0.00 0.00 0.00 0.00 0.00 0.00 0.00 0.00 0.00 0.00 0.00 0.00 0.00 0.00 0.00 0.00 0.00 0.00 0.00 0.00 0.00 0.00 0.00 0.00 0.00 0.00 0.00 0.00 0.00 0.00 0.00 0.00
0.00 0.00 0.00 0.00 0.00 0.00 0.00 0.00 0.00 0.00 0.00 0.00 0.00 0.00 0.00 0.00 0.00 0.00 0.00 0.00 0.00 0.00 0.00 0.00 0.00 0.00 0.00 0.00 0.00 0.00 0.00 0.00 0.00 0.00 0.00 0.00 0.00 0.00 0.00 0.00 0.00 0.00 0.00 0.00
0.00 0.00 0.00 0.00 0.00 0.00 0.00 0.00 0.00 0.00 0.00 0.00 0.00 0.00 0.00 0.00 0.00 0.00 0.00 0.00 0.00 0.00 0.00 0.00 0.00 0.00 0.00 0.00 0.00 0.00 0.00 0.00 0.00 0.00 0.00 0.00 0.00 0.00 0.00 0.00 0.00 0.00 0.00 0.00
0.00 0.00 0.00 0.00 0.00 0.00 0.00 0.00 0.00 0.00 0.00 0.00 0.00 0.00 0.00 0.00 0.00 0.00 0.00 0.00 0.00 0.00 0.00 0.00 0.00 0.00 0.00 0.00 0.00 0.00 0.00 0.00 0.00 0.00 0.00 0.00 0.00 0.00 0.00 0.00 0.00 0.00 0.00 0.00
MSLP
1031.44 1030.43 1029.93 1030.05 1030.53 1030.27 1029.53 1029.09 1028.15 1025.87 1025.03 1023.19 1021.57 1019.98 1018.43 1015.77 1014.86 1013.03 1010.74 1008.75 1006.61 1005.11 1003.59 1001.62 1000.72 999.94 999.12 999.65 1000.10 1000.43 1001.44 1002.21 1003.03 1004.11 1004.63 1005.63 1006.61 1007.93 1009.17 1009.88 1010.79 1013.14 1013.67 1014.78
1030.46 1029.65 1029.94 1030.09 1030.38 1029.79 1029.71 1029.00 1028.27 1026.91 1025.18 1024.25 1022.34 1020.17 1017.89 1016.24 1014.20 1012.53 1010.85 1009.03 1007.39 1006.02 1003.91 1002.31 1001.17 999.93 999.06 999.50 999.89 1000.82 1001.72 1002.48 1003.51 1004.41 1004.63 1005.54 1006.74 1007.79 1008.97 1010.06 1011.30 1012.91 1014.06 1014.90
1030.88 1029.94 1029.70 1030.34 1030.46 1030.30 1029.61 1029.11 1028.71 1027.17 1025.45 1023.18 1020.58 1019.22 1017.15 1015.55 1014.47 1013.39 1011.63 1010.47 1008.73 1006.84 1005.14 1003.66 1002.22 1001.19 999.78 999.27 1000.30 1001.18 1001.83 1003.14 1003.72 1004.52 1005.41 1005.98 1007.28 1008.04 1008.79 1010.26 1011.33 1012.68 1013.58 1014.91
1031.48 1030.52 1030.43 1030.45 1030.21 1030.13 1029.72 1029.03 1028.80 1027.53 1025.81 1024.78 1022.75 1019.90 1017.74 1016.88 1014.72 1013.11 1010.53 1009.29 1007.78 1006.78 1005.35 1004.00 1002.76 1001.43 1000.54 999.95 1000.58 1001.33 1002.37 1003.43 1004.27 1005.16 1005.43 1006.94 1007.71 1008.74 1009.59 1010.71 1011.27 1012.57 1013.80 1014.67
1032.80 1032.07 1030.87 1030.48 1030.49 1030.17 1030.24 1029.14 1028.66 1027.31 1025.45 1024.02 1021.91 1019.47 1016.91 1016.57 1015.38 1014.39 1012.69 1011.08 1009.79 1007.58 1006.17 1004.55 1002.48 1000.98 1000.06 1000.42 1001.03 1002.00 1003.15 1003.84 1004.71 1005.56 1006.35 1007.24 1008.14 1008.98 1009.88 1011.00 1011.90 1012.72 1013.70 1014.69
1034.07 1033.29 1031.98 1031.53 1030.46 1029.62 1029.40 1029.27 1028.59 1028.18 1025.92 1024.23 1021.99 1019.19 1017.76 1016.13 1014.78 1013.30 1013.08 1011.27 1009.51 1006.82 1005.77 1004.32 1002.79 1000.55 1000.47 1001.32 1001.83 1002.74 1003.62 1004.22 1005.59 1006.18 1007.19 1008.12 1008.98 1009.75 1010.50 1011.28 1011.99 1012.92 1014.11 1014.95
1035.16 1034.01 1032.29 1031.76 1030.51 1029.33 1030.37 1031.27 1029.84 1029.16 1027.28 1025.38 1024.34 1024.04 1021.17 1018.92 1016.91 1014.73 1013.03 1011.33 1009.17 1007.92 1006.46 1005.67 1004.08 1001.91 1001.42 1002.28 1003.07 1003.25 1004.22 1005.37 1006.57 1007.22 1007.65 1008.42 1009.31 1010.17 1010.82 1011.65 1012.49 1013.58 1014.59 1015.53
1035.63 1034.64 1032.99 1032.10 1031.12 1032.01 1032.86 1031.77 1030.98 1029.67 1028.05 1026.29 1024.86 1023.44 1021.79 1019.99 1018.08 1015.76 1014.17 1012.60 1011.78 1009.22 1008.82 1006.56 1005.26 1004.17 1003.94 1004.25 1004.24 1004.52 1005.29 1006.14 1006.99 1007.61 1008.45 1009.53 1010.06 1010.95 1011.47 1012.11 1013.14 1014.16 1015.32 1016.33
1036.53 1034.59 1033.16 1032.85 1032.61 1032.59 1032.55 1032.04 1031.04 1029.85 1028.44 1027.09 1025.38 1023.79 1022.47 1020.83 1019.73 1017.49 1016.61 1014.18 1012.21 1011.45 1009.10 1007.89 1006.54 1006.48 1006.27 1006.07 1005.55 1006.06 1006.56 1007.39 1008.13 1008.54 1009.40 1009.95 1010.50 1011.49 1012.51 1013.43 1014.00 1015.05 1015.63 1016.74
1036.22 1034.34 1033.79 1033.09 1032.99 1032.78 1032.28 1031.80 1030.88 1029.90 1028.58 1027.40 1026.06 1024.51 1023.47 1022.07 1020.31 1018.87 1016.95 1015.58 1014.28 1012.03 1011.53 1009.86 1009.52 1008.39 1007.47 1007.22 1006.75 1007.15 1007.99 1008.54 1008.81 1009.39 1010.38 1010.90 1011.60 1012.40 1012.94 1013.63 1014.48 1015.01 1016.13 1017.06
1035.69 1034.28 1033.69 1033.30 1033.13 1033.09 1032.19 1031.45 1030.69 1029.75 1028.68 1027.57 1026.70 1024.94 1024.19 1022.88 1021.60 1020.25 1018.74 1017.26 1015.76 1014.44 1013.11 1012.58 1011.47 1010.05 1009.30 1008.77 1008.25 1008.42 1008.83 1009.35 1009.99 1010.42 1011.08 1011.75 1012.46 1013.07 1013.51 1013.93 1014.09 1015.24 1016.03 1016.81
1035.60 1035.41 1035.18 1034.19 1033.59 1033.32 1032.78 1031.68 1030.62 1029.54 1028.58 1027.85 1027.09 1026.02 1024.45 1023.81 1022.83 1021.28 1020.23 1018.92 1017.34 1016.36 1015.13 1014.22 1012.56 1011.68 1010.78 1010.30 1009.64 1009.52 1009.91 1010.45 1010.86 1011.54 1012.03 1012.50 1013.37 1013.97 1014.46 1014.36 1014.98 1015.80 1016.31 1016.72
1035.92 1035.64 1035.21 1034.36 1033.89 1033.46 1033.06 1032.01 1030.79 1029.81 1029.03 1028.36 1027.60 1026.86 1025.66 1024.16 1023.19 1022.37 1021.17 1019.96 1018.97 1017.78 1016.63 1015.04 1014.04 1013.29 1012.66 1011.78 1011.26 1011.12 1011.30 1011.54 1011.70 1012.07 1012.17 1013.35 1013.96 1014.18 1015.19 1016.09 1016.28 1016.72 1017.20 1017.67
1035.97 1035.73 1035.20 1034.64 1034.38 1033.65 1032.93 1031.99 1031.12 1030.18 1029.27 1028.63 1028.02 1027.13 1026.41 1025.36 1023.89 1023.16 1022.22 1021.31 1020.13 1019.03 1017.49 1016.30 1015.31 1014.73 1013.94 1013.31 1012.80 1012.51 1012.45 1012.73 1012.93 1013.29 1013.62 1014.08 1014.41 1015.09 1015.78 1016.33 1017.05 1017.57 1018.05 1018.39
1036.46 1036.16 1035.64 1035.09 1034.43 1033.70 1032.77 1031.93 1031.15 1030.36 1029.66 1028.64 1028.04 1027.55 1026.85 1025.88 1024.84 1023.64 1022.68 1021.97 1021.10 1019.81 1018.70 1017.68 1016.55 1015.77 1014.92 1014.41 1014.06 1013.94 1013.75 1013.72 1013.84 1014.07 1014.39 1014.69 1015.26 1015.78 1016.38 1016.82 1017.32 1017.93 1018.62 1019.33
1036.97 1036.28 1035.71 1035.30 1034.68 1033.89 1033.04 1032.11 1031.50 1030.62 1029.85 1029.29 1028.51 1027.69 1027.16 1026.55 1025.77 1024.71 1023.48 1022.35 1021.46 1020.80 1020.02 1019.06 1017.98 1017.21 1016.59 1015.91 1015.49 1015.05 1014.71 1014.70 1014.98 1015.17 1015.38 1015.76 1016.26 1016.62 1017.04 1017.40 1018.02 1018.18 1018.94 1019.72
1037.56 1036.33 1035.82 1035.21 1034.67 1033.94 1033.29 1032.40 1031.68 1030.93 1030.06 1029.30 1028.76 1028.22 1027.38 1026.44 1025.84 1025.16 1024.27 1023.46 1022.71 1021.90 1021.11 1020.19 1019.25 1018.34 1017.45 1017.06 1016.39 1016.23 1015.93 1015.84 1015.88 1016.16 1016.28 1016.51 1016.87 1017.34 1017.63 1018.05 1018.36 1019.03 1019.87 1020.45
1037.18 1036.25 1035.53 1035.10 1034.48 1033.72 1032.99 1032.29 1031.57 1030.87 1030.30 1029.63 1028.89 1028.28 1027.75 1027.06 1026.53 1025.76 1024.84 1023.96 1023.11 1022.26 1021.64 1021.06 1020.18 1019.57 1019.12 1018.64 1018.14 1017.79 1017.29 1017.12 1017.05 1017.06 1017.21 1017.37 1017.64 1017.97 1018.50 1018.96 1019.51 1020.19 1020.87 1021.74
1036.86 1036.17 1035.00 1034.33 1033.71 1033.15 1032.70 1032.16 1031.52 1030.88 1030.31 1029.71 1029.22 1028.74 1028.07 1027.55 1027.01 1026.21 1025.23 1024.29 1023.46 1022.82 1022.23 1021.61 1021.11 1020.61 1019.95 1019.39 1019.12 1018.75 1018.51 1018.07 1018.15 1018.23 1018.32 1018.38 1018.68 1019.13 1019.60 1020.25 1020.79 1021.39 1022.09 1022.84
1036.17 1035.68 1034.70 1033.79 1033.10 1032.69 1032.29 1031.70 1031.16 1030.81 1030.25 1029.77 1029.31 1028.91 1028.36 1027.80 1027.09 1026.33 1025.47 1024.92 1024.50 1023.78 1023.02 1022.27 1021.73 1021.14 1020.56 1020.07 1019.74 1019.47 1019.30 1019.27 1019.28 1019.40 1019.44 1019.64 1019.99 1020.27 1020.92 1021.43 1021.96 1022.58 1023.12 1023.65
1035.04 1034.40 1033.83 1033.22 1032.73 1032.27 1031.88 1031.43 1031.06 1030.80 1030.30 1029.81 1029.59 1029.23 1028.68 1028.14 1027.54 1026.72 1025.90 1025.31 1024.72 1023.96 1023.40 1022.79 1022.24 1021.85 1021.41 1021.15 1020.85 1020.61 1020.46 1020.52 1020.71 1020.72 1020.81 1021.16 1021.58 1021.91 1022.30 1022.78 1023.25 1023.71 1024.27 1024.86
1034.22 1033.61 1033.06 1032.65 1032.34 1032.03 1031.73 1031.42 1031.09 1030.77 1030.37 1029.98 1029.67 1029.33 1028.85 1028.51 1027.96 1027.31 1026.75 1026.20 1025.42 1024.69 1023.92 1023.21 1022.87 1022.50 1022.32 1022.17 1021.98 1021.74 1021.63 1021.64 1021.61 1021.63 1022.03 1022.28 1022.54 1023.13 1023.58 1023.91 1024.40 1024.98 1025.42 1026.01
1033.10 1032.79 1032.42 1032.20 1032.03 1031.78 1031.55 1031.31 1031.07 1030.85 1030.50 1030.19 1029.93 1029.59 1029.16 1029.03 1028.56 1027.91 1027.27 1026.95 1026.45 1025.54 1024.73 1024.06 1023.73 1023.36 1023.19 1023.09 1022.96 1022.83 1022.73 1022.67 1022.69 1022.85 1023.14 1023.47 1023.75 1024.14 1024.58 1025.01 1025.55 1026.04 1026.50 1027.19
1032.43 1032.23 1032.01 1031.85 1031.79 1031.55 1031.44 1031.20 1030.98 1030.81 1030.59 1030.30 1029.98 1029.79 1029.46 1029.25 1028.81 1028.58 1028.42 1027.90 1027.21 1026.49 1025.74 1025.35 1024.80 1024.41 1024.25 1024.25 1024.26 1024.15 1024.03 1024.07 1024.10 1024.22 1024.50 1024.82 1025.02 1025.37 1025.83 1026.38 1026.78 1027.24 1027.79 1028.08
1031.86 1031.84 1031.72 1031.70 1031.69 1031.42 1031.24 1031.12 1030.92 1030.75 1030.59 1030.39 1030.24 1030.15 1029.96 1029.71 1029.42 1029.30 1029.14 1028.58 1027.96 1027.53 1027.16 1026.62 1026.04 1025.73 1025.65 1025.70 1025.62 1025.46 1025.39 1025.44 1025.50 1025.61 1025.85 1026.02 1026.41 1026.84 1027.22 1027.63 1027.96 1028.36 1028.86 1029.29
1031.51 1031.61 1031.45 1031.40 1031.44 1031.36 1031.13 1031.02 1030.85 1030.72 1030.62 1030.58 1030.49 1030.35 1030.13 1029.92 1029.75 1029.84 1029.58 1029.21 1028.94 1028.68 1028.19 1027.72 1027.39 1027.19 1027.04 1027.04 1027.07 1026.98 1026.87 1026.89 1026.94 1027.07 1027.19 1027.47 1027.76 1028.12 1028.45 1028.85 1029.27 1029.68 1030.06 1030.51
1031.17 1031.03 1031.17 1031.20 1031.23 1031.22 1031.02 1030.81 1030.73 1030.61 1030.54 1030.50 1030.54 1030.54 1030.42 1030.18 1030.06 1030.14 1030.15 1030.09 1029.75 1029.61 1029.14 1028.73 1028.64 1028.43 1028.42 1028.35 1028.51 1028.60 1028.33 1028.25 1028.31 1028.47 1028.69 1028.93 1029.17 1029.44 1029.72 1030.06 1030.45 1030.82 1031.19 1031.53
Thickness
5291 5292 5279 5270 5249 5243 5240 5233 5229 5245 5231 5240 5240 5246 5254 5273 5277 5286 5298 5310 5327 5342 5370 5413 5445 5473 5504 5522 5542 5556 5565 5576 5585 5587 5595 5598 5595 5593 5594 5595 5599 5590 5593 5592
5278 5299 5272 5272 5259 5251 5249 5242 5233 5234 5246 5242 5247 5259 5270 5282 5294 5303 5312 5319 5334 5352 5383 5414 5449 5476 5511 5530 5543 5551 5561 5569 5578 5580 5591 5593 5590 5588 5587 5585 5586 5581 5585 5584
5276 5299 5293 5267 5237 5238 5250 5248 5237 5242 5247 5257 5271 5277 5289 5298 5300 5304 5315 5323 5344 5368 5393 5420 5448 5472 5507 5536 5543 5549 5559 5564 5573 5579 5581 5585 5580 5580 5583 5578 5581 5579 5580 5575
5273 5289 5250 5265 5258 5250 5253 5251 5246 5249 5254 5252 5262 5282 5297 5297 5306 5316 5333 5346 5368 5385 5407 5428 5449 5475 5504 5534 5542 5550 5556 5561 5568 5573 5574 5571 5573 5572 5573 5571 5573 5573 5570 5571
5250 5268 5278 5269 5259 5253 5231 5250 5259 5254 5267 5272 5283 5300 5319 5312 5316 5320 5335 5352 5368 5394 5414 5436 5469 5497 5528 5535 5541 5547 5552 5557 5560 5565 5568 5567 5566 5566 5566 5562 5561 5563 5563 5561
5264 5246 5265 5238 5270 5272 5262 5256 5267 5254 5267 5277 5292 5309 5320 5327 5334 5346 5346 5362 5377 5404 5427 5452 5480 5519 5535 5536 5543 5545 5550 5555 5552 5557 5553 5551 5555 5555 5553 5551 5555 5557 5553 5553
5250 5240 5263 5261 5268 5277 5252 5241 5252 5251 5262 5274 5280 5278 5300 5315 5329 5346 5359 5372 5395 5411 5431 5450 5481 5514 5527 5532 5535 5544 5542 5541 5543 5547 5549 5548 5548 5547 5549 5546 5548 5545 5544 5542
5239 5212 5244 5257 5268 5248 5237 5247 5248 5254 5264 5273 5283 5289 5300 5315 5327 5345 5358 5374 5387 5419 5423 5455 5475 5495 5507 5506 5519 5532 5534 5534 5537 5540 5540 5536 5538 5538 5540 5541 5540 5537 5533 5531
5234 5249 5254 5251 5254 5254 5247 5246 5252 5260 5267 5274 5285 5293 5300 5312 5322 5341 5347 5370 5387 5401 5432 5450 5472 5476 5486 5493 5511 5515 5519 5520 5523 5528 5526 5528 5532 5530 5529 5528 5527 5525 5528 5524
5236 5253 5243 5245 5248 5247 5250 5252 5259 5264 5272 5280 5287 5296 5300 5311 5326 5338 5357 5368 5381 5406 5417 5439 5451 5464 5475 5483 5497 5504 5506 5508 5514 5515 5513 5516 5520 5521 5525 5522 5521 5521 5519 5517
5231 5238 5236 5238 5241 5236 5248 5256 5262 5267 5277 5283 5287 5300 5304 5313 5323 5335 5349 5363 5379 5392 5411 5421 5439 5455 5465 5473 5485 5493 5498 5500 5502 5507 5508 5508 5508 5511 5514 5515 5521 5517 5516 5517
5232 5222 5214 5218 5224 5231 5237 5250 5260 5271 5278 5283 5288 5294 5307 5313 5320 5334 5343 5355 5373 5383 5398 5412 5428 5441 5454 5463 5474 5483 5487 5489 5494 5495 5498 5500 5497 5500 5502 5509 5509 5508 5511 5514
5222 5217 5212 5216 5217 5225 5230 5243 5258 5268 5274 5279 5285 5291 5301 5314 5322 5333 5342 5353 5363 5376 5387 5406 5418 5428 5439 5452 5462 5469 5473 5479 5485 5491 5497 5489 5491 5498 5492 5492 5498 5499 5499 5500
5220 5207 5210 5213 5209 5215 5227 5240 5251 5261 5270 5277 5283 5291 5299 5308 5321 5329 5338 5347 5359 5370 5385 5398 5410 5418 5429 5439 5449 5457 5464 5469 5472 5475 5479 5481 5486 5486 5486 5488 5488 5489 5490 5491
5210 5202 5201 5200 5202 5209 5222 5234 5245 5253 5263 5276 5282 5288 5296 5306 5316 5327 5337 5345 5353 5367 5378 5388 5400 5409 5420 5429 5437 5443 5449 5456 5461 5466 5470 5474 5475 5477 5478 5479 5479 5479 5479 5478
5203 5200 5196 5193 5195 5201 5211 5226 5237 5248 5259 5268 5276 5288 5292 5298 5305 5317 5330 5342 5352 5359 5368 5378 5390 5399 5408 5416 5424 5432 5439 5445 5447 5450 5455 5458 5459 5462 5465 5468 5468 5473 5469 5466
5197 5199 5194 5199 5193 5195 5207 5220 5230 5241 5255 5264 5272 5278 5287 5298 5306 5314 5323 5332 5340 5348 5357 5368 5379 5388 5398 5406 5413 5419 5425 5430 5435 5437 5441 5446 5450 5452 5453 5454 5457 5457 5452 5452
5192 5188 5191 5191 5191 5196 5205 5216 5228 5238 5247 5258 5267 5275 5282 5291 5298 5306 5316 5325 5334 5342 5350 5357 5366 5373 5379 5386 5394 5401 5409 5415 5420 5425 5428 5432 5435 5437 5438 5440 5440 5438 5437 5433
5186 5189 5191 5196 5197 5199 5204 5213 5224 5233 5240 5251 5259 5267 5276 5283 5290 5298 5309 5319 5328 5335 5341 5348 5354 5360 5367 5375 5378 5385 5391 5400 5403 5408 5412 5417 5420 5421 5422 5421 5421 5420 5418 5415
5190 5185 5190 5196 5199 5200 5205 5212 5224 5229 5237 5246 5253 5261 5270 5277 5285 5295 5303 5309 5314 5322 5330 5337 5342 5349 5356 5363 5369 5374 5379 5383 5387 5390 5395 5399 5401 5404 5404 5404 5404 5402 5401 5401
5192 5193 5195 5199 5200 5202 5207 5214 5222 5227 5234 5242 5247 5254 5261 5270 5277 5287 5295 5302 5307 5315 5320 5327 5333 5338 5344 5348 5355 5360 5364 5366 5367 5371 5376 5379 5380 5383 5384 5385 5385 5386 5385 5384
5193 5194 5197 5198 5198 5201 5204 5209 5217 5223 5229 5236 5243 5249 5256 5262 5268 5276 5283 5288 5296 5303 5310 5317 5322 5328 5332 5336 5340 5345 5349 5352 5356 5359 5360 5363 5367 5367 5368 5369 5369 5369 5370 5369
5195 5194 5195 5195 5195 5198 5202 5206 5212 5218 5224 5230 5235 5242 5248 5252 5257 5264 5271 5276 5281 5289 5296 5303 5309 5315 5320 5323 5327 5332 5335 5339 5342 5346 5347 5348 5350 5352 5354 5356 5355 5356 5355 5354
5190 5189 5190 5192 5191 5196 5199 5203 5208 5213 5218 5224 5230 5234 5239 5243 5249 5253 5256 5262 5269 5275 5281 5285 5292 5299 5304 5309 5312 5316 5321 5324 5327 5330 5332 5332 5334 5336 5339 5339 5340 5340 5339 5341
5184 5183 5185 5185 5186 5190 5195 5198 5203 5208 5213 5218 5222 5225 5228 5233 5238 5241 5244 5251 5257 5260 5262 5268 5275 5281 5286 5291 5296 5302 5306 5310 5313 5316 5318 5320 5321 5322 5324 5324 5324 5324 5324 5324
5176 5175 5177 5179 5180 5183 5188 5192 5197 5202 5207 5209 5213 5218 5221 5225 5229 5231 5236 5241 5245 5246 5250 5254 5258 5263 5270 5275 5279 5284 5289 5293 5297 5301 5304 5305 5307 5308 5310 5310 5310 5310 5311 5311
5168 5173 5170 5173 5175 5177 5182 5188 5191 5196 5200 5204 5207 5210 5213 5218 5222 5224 5226 5229 5233 5234 5239 5242 5245 5249 5254 5258 5263 5267 5273 5277 5281 5285 5288 5290 5292 5293 5295 5296 5296 5296 5297 5297